Weather History for KMTJ - September, 2013

Change the Weather History Date:

Sunday, September 22, 2013

  Actual Average Record
Temperature  
Mean Temperature 58 °F 60 °F  
Max Temperature 68 °F 75 °F - ()
Min Temperature 48 °F 45 °F - ()
Degree Days  
Heating Degree Days 7 6  
Month to date heating degree days 20 63  
Since 1 July heating degree days 22 68  
Cooling Degree Days 0 1  
Month to date cooling degree days 90 37  
Year to date cooling degree days 891 642  
Growing Degree Days 8 (Base 50)    
Moisture  
Dew Point 50 °F    
Average Humidity 69    
Maximum Humidity 89    
Minimum Humidity 49    
Precipitation  
Precipitation 0.89 in 0.06 in - ()
Month to date precipitation 2.11 0.95  
Year to date precipitation 8.13 8.28  
Sea Level Pressure  
Sea Level Pressure 29.77 in    
Wind  
Wind Speed 10 mph (East)    
Max Wind Speed 28 mph    
Max Gust Speed 35 mph    
Visibility 8 miles    
Events Rain , Thunderstorm    
T = Trace of Precipitation, MM = Missing Value Source: NWS Daily Summary

Daily Weather History Graph

Daily Weather History Graph

Search for Another Location

Airport or City:

Trip Planner

Search our weather history database for the weather conditions in past years. The results will help you decide how hot, cold, wet, or windy it might be!

Date:

Astronomy

Sep. 22, 2013 Rise Set
Actual Time 6:59 AM MDT 7:08 PM MDT
Civil Twilight 6:33 AM MDT 7:34 PM MDT
Nautical Twilight 6:02 AM MDT 8:05 PM MDT
Astronomical Twilight 5:30 AM MDT 8:36 PM MDT
Moon 9:03 PM MDT (9/22) 10:19 AM MDT (9/22)
Length of Visible Light 13h 01m
Length of Day
12h 08m
Waning Gibbous, 88% of the Moon is Illuminated
Sep 22
Waning Gibbous
Sep 26
Last Quarter
Oct 4
New
Oct 11
First Quarter
Oct 18
Full

Hourly Weather History & Observations

Time (MDT) Temp. Dew Point Humidity Pressure Visibility Wind Dir Wind Speed Gust Speed Precip Events Conditions
12:53 AM 61.0 °F 51.1 °F 70% 29.71 in 10.0 mi East 3.5 mph - 0.00 in Rain Light Rain
1:03 AM 59.0 °F 53.6 °F 82% 29.95 in 10.0 mi East 5.8 mph - 0.00 in Thunderstorm Mostly Cloudy
1:21 AM 59.0 °F 51.8 °F 77% 29.96 in 10.0 mi Calm Calm - 0.00 in   Mostly Cloudy
1:42 AM 60.8 °F 51.8 °F 72% 29.95 in 10.0 mi SSE 5.8 mph - 0.00 in Thunderstorm Overcast
1:53 AM 60.1 °F 53.1 °F 78% 29.71 in 10.0 mi ESE 5.8 mph - 0.00 in   Mostly Cloudy
2:53 AM 60.1 °F 51.1 °F 72% 29.69 in 10.0 mi ESE 17.3 mph - N/A Thunderstorm Mostly Cloudy
3:12 AM 62.6 °F 48.2 °F 59% 29.92 in 10.0 mi ESE 10.4 mph - N/A   Scattered Clouds
3:53 AM 59.0 °F 52.0 °F 78% 29.69 in 10.0 mi SSE 8.1 mph - 0.01 in Rain Light Rain
4:05 AM 60.8 °F 51.8 °F 72% 29.93 in 9.0 mi Variable 4.6 mph - 0.00 in Rain , Thunderstorm Light Thunderstorms and Rain
4:23 AM 60.8 °F 51.8 °F 72% 29.92 in 10.0 mi ESE 12.7 mph - 0.01 in   Overcast
4:53 AM 60.1 °F 52.0 °F 75% 29.70 in 10.0 mi SSE 12.7 mph - 0.01 in   Overcast
5:53 AM 60.1 °F 50.0 °F 69% 29.67 in 10.0 mi SE 15.0 mph - N/A   Overcast
6:53 AM 60.1 °F 50.0 °F 69% 29.70 in 10.0 mi South 12.7 mph 20.7 mph N/A   Scattered Clouds
7:53 AM 59.0 °F 50.0 °F 72% 29.70 in 10.0 mi SSE 10.4 mph - N/A   Clear
8:28 AM 60.8 °F 50.0 °F 68% 29.90 in 10.0 mi East 5.8 mph - N/A Thunderstorm Partly Cloudy
8:53 AM 63.0 °F 51.1 °F 65% 29.68 in 10.0 mi ESE 3.5 mph - N/A   Clear
9:53 AM 64.0 °F 51.1 °F 63% 29.65 in 10.0 mi East 10.4 mph - N/A   Mostly Cloudy
10:53 AM 68.0 °F 48.9 °F 50% 29.62 in 6.0 mi East 18.4 mph 24.2 mph 0.00 in   Haze
11:53 AM 60.1 °F 50.0 °F 69% 29.66 in 10.0 mi North 6.9 mph 21.9 mph 0.02 in Rain , Thunderstorm Light Thunderstorms and Rain
12:51 PM 55.4 °F 48.2 °F 77% 29.85 in 10.0 mi East 9.2 mph - 0.04 in   Overcast
12:53 PM 55.9 °F 48.9 °F 77% 29.66 in 10.0 mi East 8.1 mph - 0.04 in   Overcast
1:21 PM 57.2 °F 51.8 °F 82% 29.84 in 10.0 mi ESE 16.1 mph - 0.00 in Rain , Thunderstorm Light Thunderstorms and Rain
1:49 PM 62.6 °F 50.0 °F 63% 29.80 in 10.0 mi ESE 12.7 mph 24.2 mph 0.00 in   Scattered Clouds
1:53 PM 62.1 °F 50.0 °F 65% 29.61 in 10.0 mi SE 8.1 mph - 0.00 in   Scattered Clouds
2:53 PM 66.0 °F 51.1 °F 59% 29.55 in 10.0 mi South 6.9 mph - N/A   Partly Cloudy
3:27 PM 60.8 °F 51.8 °F 72% 29.76 in 10.0 mi West 12.7 mph 19.6 mph N/A Thunderstorm Mostly Cloudy
3:37 PM 59.0 °F 51.8 °F 77% 29.77 in 10.0 mi WNW 21.9 mph - N/A   Mostly Cloudy
3:53 PM 57.0 °F 51.1 °F 81% 29.64 in 10.0 mi WNW 26.5 mph 34.5 mph 0.00 in Rain Light Rain
4:53 PM 53.1 °F 50.0 °F 89% 29.66 in 5.0 mi ENE 8.1 mph - 0.11 in Rain Rain
5:22 PM 51.8 °F 50.0 °F 94% 29.84 in 2.0 mi ENE 3.5 mph - 0.14 in Rain Heavy Rain
5:35 PM 51.8 °F 50.0 °F 94% 29.86 in 1.8 mi NNW 6.9 mph - 0.22 in Rain Heavy Rain
5:43 PM 51.8 °F 50.0 °F 94% 29.87 in 1.2 mi NW 6.9 mph - 0.29 in Rain Heavy Rain
5:53 PM 51.1 °F 48.9 °F 92% 29.73 in 1.8 mi NW 10.4 mph - 0.35 in Rain Heavy Rain
5:59 PM 50.0 °F 48.2 °F 94% 29.89 in 2.0 mi NNW 5.8 mph - 0.04 in Rain Heavy Rain
6:02 PM 50.0 °F 48.2 °F 94% 29.89 in 2.5 mi NNW 5.8 mph - 0.05 in Rain Heavy Rain
6:13 PM 50.0 °F 48.2 °F 94% 29.89 in 1.5 mi NNE 6.9 mph - 0.13 in Rain Heavy Rain
6:20 PM 50.0 °F 48.2 °F 94% 29.90 in 2.0 mi NNW 3.5 mph - 0.16 in Rain Rain
6:24 PM 50.0 °F 48.2 °F 94% 29.90 in 3.0 mi Variable 4.6 mph - 0.18 in Rain Rain
6:53 PM 50.0 °F 46.9 °F 89% 29.73 in 8.0 mi ENE 3.5 mph - 0.24 in Rain Rain
7:53 PM 48.9 °F 44.1 °F 83% 29.70 in 10.0 mi East 3.5 mph - 0.10 in   Overcast
8:53 PM 50.0 °F 44.1 °F 80% 29.67 in 10.0 mi SSW 4.6 mph - N/A   Mostly Cloudy
9:53 PM 48.9 °F 45.0 °F 86% 29.70 in 10.0 mi West 11.5 mph - N/A   Overcast
10:53 PM 48.9 °F 46.0 °F 90% 29.70 in 10.0 mi Calm Calm - 0.00 in Rain Light Rain
11:53 PM 48.9 °F 46.9 °F 93% 29.73 in 10.0 mi South 6.9 mph - 0.00 in   Overcast